QPF
0.00 0.00 0.00 0.00 0.00 0.00 0.00 0.00 0.00 0.00 0.00 0.00 0.00 0.00 0.00 0.00 0.00 0.00 0.00 0.00 0.00 0.00 0.00 0.00 0.00 0.00 0.00 0.00 0.00 0.00 0.00 0.00 0.00 0.00 0.00 0.00 0.00 0.00 0.00 0.00 0.00 0.00 0.00 0.00 0.00
0.00 0.00 0.00 0.00 0.00 0.00 0.00 0.00 0.00 0.00 0.00 0.00 0.00 0.00 0.00 0.00 0.00 0.00 0.00 0.00 0.00 0.00 0.00 0.00 0.00 0.00 0.00 0.00 0.00 0.00 0.00 0.00 0.00 0.00 0.00 0.00 0.00 0.00 0.00 0.00 0.00 0.00 0.00 0.00 0.00
0.00 0.00 0.00 0.00 0.00 0.00 0.00 0.00 0.00 0.00 0.00 0.00 0.00 0.00 0.00 0.00 0.00 0.00 0.00 0.00 0.00 0.00 0.00 0.00 0.00 0.00 0.00 0.00 0.00 0.00 0.00 0.00 0.00 0.00 0.00 0.00 0.00 0.00 0.00 0.00 0.00 0.00 0.00 0.00 0.00
0.00 0.00 0.00 0.00 0.00 0.00 0.00 0.00 0.00 0.00 0.00 0.00 0.00 0.00 0.00 0.00 0.00 0.00 0.00 0.00 0.00 0.00 0.00 0.00 0.00 0.00 0.00 0.00 0.00 0.00 0.00 0.00 0.00 0.00 0.00 0.00 0.00 0.00 0.00 0.00 0.00 0.00 0.00 0.00 0.00
0.00 0.00 0.00 0.00 0.00 0.00 0.00 0.00 0.00 0.00 0.00 0.00 0.00 0.00 0.00 0.00 0.00 0.00 0.00 0.00 0.00 0.00 0.00 0.00 0.00 0.00 0.00 0.00 0.00 0.00 0.00 0.00 0.00 0.00 0.00 0.00 0.00 0.00 0.00 0.00 0.00 0.00 0.00 0.00 0.00
0.00 0.00 0.00 0.00 0.00 0.00 0.00 0.00 0.00 0.00 0.00 0.00 0.00 0.00 0.00 0.00 0.00 0.00 0.00 0.00 0.00 0.00 0.00 0.00 0.00 0.00 0.00 0.00 0.00 0.00 0.00 0.00 0.00 0.00 0.00 0.00 0.00 0.00 0.00 0.00 0.00 0.00 0.00 0.00 0.00
0.00 0.00 0.00 0.00 0.00 0.00 0.00 0.00 0.00 0.00 0.00 0.00 0.00 0.00 0.00 0.00 0.00 0.00 0.00 0.00 0.00 0.00 0.00 0.00 0.00 0.00 0.00 0.00 0.00 0.00 0.00 0.00 0.00 0.00 0.00 0.00 0.00 0.00 0.00 0.00 0.00 0.00 0.00 0.00 0.00
0.00 0.00 0.00 0.00 0.00 0.00 0.00 0.00 0.00 0.00 0.00 0.00 0.00 0.00 0.00 0.00 0.00 0.00 0.00 0.00 0.00 0.00 0.00 0.00 0.00 0.00 0.00 0.00 0.00 0.00 0.00 0.00 0.00 0.00 0.00 0.00 0.00 0.00 0.00 0.00 0.00 0.00 0.00 0.00 0.00
0.00 0.00 0.00 0.00 0.00 0.00 0.00 0.00 0.00 0.00 0.00 0.00 0.00 0.00 0.00 0.00 0.00 0.00 0.00 0.00 0.00 0.00 0.00 0.00 0.00 0.00 0.00 0.00 0.00 0.00 0.00 0.00 0.00 0.00 0.00 0.00 0.00 0.00 0.00 0.00 0.00 0.00 0.00 0.00 0.00
0.00 0.00 0.00 0.00 0.00 0.00 0.00 0.00 0.00 0.00 0.00 0.00 0.00 0.00 0.00 0.00 0.00 0.00 0.00 0.00 0.00 0.00 0.00 0.00 0.00 0.00 0.00 0.00 0.00 0.00 0.00 0.00 0.00 0.00 0.00 0.00 0.00 0.00 0.00 0.00 0.00 0.00 0.00 0.00 0.00
0.00 0.00 0.00 0.00 0.00 0.00 0.00 0.00 0.00 0.00 0.00 0.00 0.00 0.00 0.00 0.00 0.00 0.00 0.00 0.00 0.00 0.00 0.00 0.00 0.00 0.00 0.00 0.00 0.00 0.00 0.00 0.00 0.00 0.00 0.00 0.00 0.00 0.00 0.00 0.00 0.00 0.00 0.00 0.00 0.00
0.00 0.00 0.00 0.00 0.00 0.00 0.00 0.00 0.00 0.00 0.00 0.00 0.00 0.00 0.00 0.00 0.00 0.00 0.00 0.00 0.00 0.00 0.00 0.00 0.00 0.00 0.00 0.00 0.00 0.00 0.00 0.00 0.00 0.00 0.00 0.00 0.00 0.00 0.00 0.00 0.00 0.00 0.00 0.00 0.00
0.00 0.00 0.00 0.00 0.00 0.00 0.00 0.00 0.00 0.00 0.00 0.00 0.00 0.00 0.00 0.00 0.00 0.00 0.00 0.00 0.00 0.00 0.00 0.00 0.00 0.00 0.00 0.00 0.00 0.00 0.00 0.00 0.00 0.00 0.00 0.00 0.00 0.00 0.00 0.00 0.00 0.00 0.00 0.00 0.00
0.00 0.00 0.00 0.00 0.00 0.00 0.00 0.00 0.00 0.00 0.00 0.00 0.00 0.00 0.00 0.00 0.00 0.00 0.00 0.00 0.00 0.00 0.00 0.00 0.00 0.00 0.00 0.00 0.00 0.00 0.00 0.00 0.00 0.00 0.00 0.00 0.00 0.00 0.00 0.00 0.00 0.00 0.00 0.00 0.00
0.00 0.00 0.00 0.00 0.00 0.00 0.00 0.00 0.00 0.00 0.00 0.00 0.00 0.00 0.00 0.00 0.00 0.00 0.00 0.00 0.00 0.00 0.00 0.00 0.00 0.00 0.00 0.00 0.00 0.00 0.00 0.00 0.00 0.00 0.00 0.00 0.00 0.00 0.00 0.00 0.00 0.00 0.00 0.00 0.00
0.00 0.00 0.00 0.00 0.00 0.00 0.00 0.00 0.00 0.00 0.00 0.00 0.00 0.00 0.00 0.00 0.00 0.00 0.00 0.00 0.00 0.00 0.00 0.00 0.00 0.00 0.00 0.00 0.00 0.00 0.00 0.00 0.00 0.00 0.00 0.00 0.00 0.00 0.00 0.00 0.00 0.00 0.00 0.00 0.00
0.00 0.00 0.00 0.00 0.00 0.00 0.00 0.00 0.00 0.00 0.00 0.00 0.00 0.00 0.00 0.00 0.00 0.00 0.00 0.00 0.00 0.00 0.00 0.00 0.00 0.00 0.00 0.00 0.00 0.00 0.00 0.00 0.00 0.00 0.00 0.00 0.00 0.00 0.00 0.00 0.00 0.00 0.00 0.00 0.00
0.00 0.00 0.00 0.00 0.00 0.00 0.00 0.00 0.00 0.00 0.00 0.00 0.00 0.00 0.00 0.00 0.00 0.00 0.00 0.00 0.00 0.00 0.00 0.00 0.00 0.00 0.00 0.00 0.00 0.00 0.00 0.00 0.00 0.00 0.00 0.00 0.00 0.00 0.00 0.00 0.00 0.00 0.00 0.00 0.00
0.00 0.00 0.00 0.00 0.01 0.01 0.01 0.00 0.00 0.00 0.00 0.00 0.00 0.00 0.00 0.00 0.00 0.00 0.00 0.00 0.00 0.00 0.00 0.00 0.00 0.00 0.00 0.00 0.00 0.00 0.00 0.00 0.00 0.00 0.00 0.00 0.00 0.00 0.00 0.00 0.00 0.00 0.00 0.00 0.00
0.00 0.00 0.00 0.00 0.01 0.02 0.01 0.00 0.00 0.00 0.00 0.00 0.00 0.00 0.00 0.00 0.00 0.00 0.00 0.00 0.00 0.00 0.00 0.00 0.00 0.00 0.00 0.00 0.00 0.00 0.00 0.00 0.00 0.00 0.00 0.00 0.00 0.00 0.00 0.00 0.00 0.00 0.00 0.00 0.00
0.00 0.01 0.00 0.00 0.02 0.02 0.00 0.00 0.00 0.00 0.00 0.00 0.00 0.00 0.00 0.00 0.00 0.00 0.00 0.00 0.00 0.00 0.00 0.00 0.00 0.00 0.00 0.00 0.00 0.00 0.00 0.00 0.00 0.00 0.00 0.00 0.00 0.00 0.00 0.00 0.00 0.00 0.00 0.00 0.00
0.01 0.01 0.01 0.03 0.05 0.01 0.00 0.00 0.00 0.00 0.00 0.00 0.00 0.00 0.00 0.00 0.00 0.00 0.00 0.00 0.00 0.00 0.00 0.00 0.00 0.00 0.00 0.00 0.00 0.00 0.00 0.00 0.00 0.00 0.00 0.00 0.00 0.00 0.00 0.00 0.00 0.00 0.00 0.00 0.00
0.02 0.01 0.02 0.06 0.04 0.02 0.01 0.00 0.00 0.00 0.00 0.00 0.00 0.00 0.00 0.00 0.00 0.00 0.00 0.00 0.00 0.00 0.00 0.00 0.00 0.00 0.00 0.00 0.00 0.00 0.00 0.00 0.00 0.00 0.00 0.00 0.00 0.00 0.00 0.00 0.00 0.00 0.00 0.00 0.00
0.01 0.02 0.02 0.04 0.02 0.02 0.02 0.01 0.00 0.00 0.00 0.00 0.00 0.00 0.00 0.00 0.00 0.00 0.00 0.00 0.00 0.00 0.00 0.00 0.00 0.00 0.00 0.00 0.00 0.00 0.00 0.00 0.00 0.00 0.00 0.00 0.00 0.00 0.00 0.00 0.00 0.00 0.00 0.00 0.00
0.01 0.01 0.01 0.02 0.01 0.01 0.02 0.01 0.00 0.00 0.00 0.00 0.00 0.00 0.00 0.00 0.00 0.00 0.00 0.00 0.00 0.00 0.00 0.00 0.00 0.00 0.00 0.00 0.00 0.00 0.00 0.00 0.00 0.00 0.00 0.00 0.00 0.00 0.00 0.00 0.00 0.00 0.00 0.00 0.00
0.01 0.01 0.00 0.00 0.00 0.00 0.00 0.00 0.00 0.00 0.00 0.00 0.00 0.00 0.00 0.00 0.00 0.00 0.00 0.00 0.00 0.00 0.00 0.00 0.00 0.00 0.00 0.00 0.00 0.00 0.00 0.00 0.00 0.00 0.00 0.00 0.00 0.00 0.00 0.00 0.00 0.00 0.00 0.00 0.00
0.01 0.00 0.00 0.00 0.00 0.00 0.00 0.00 0.00 0.00 0.00 0.00 0.00 0.00 0.00 0.00 0.00 0.00 0.00 0.00 0.00 0.00 0.00 0.00 0.00 0.00 0.00 0.00 0.00 0.00 0.00 0.00 0.00 0.00 0.00 0.00 0.00 0.00 0.00 0.00 0.00 0.00 0.00 0.00 0.00
MSLP
1020.95 1020.77 1020.44 1020.18 1019.94 1019.68 1019.29 1018.86 1018.49 1018.21 1017.93 1017.59 1017.23 1016.93 1016.63 1016.39 1016.17 1016.05 1015.23 1013.72 1013.79 1014.06 1014.46 1014.70 1014.92 1014.95 1015.08 1015.36 1015.25 1015.47 1016.16 1015.66 1014.40 1013.16 1012.44 1012.26 1012.42 1012.58 1012.84 1013.25 1013.58 1013.85 1014.34 1014.71 1015.34
1021.12 1020.93 1020.63 1020.37 1020.10 1019.78 1019.46 1019.07 1018.69 1018.28 1017.93 1017.59 1017.20 1016.82 1016.52 1016.27 1015.99 1015.16 1013.39 1013.20 1013.51 1013.86 1014.26 1014.51 1014.73 1014.95 1015.25 1015.27 1015.43 1015.81 1016.07 1014.82 1013.40 1012.84 1012.55 1012.44 1012.52 1012.78 1013.17 1013.32 1013.66 1014.03 1014.68 1015.21 1015.81
1021.14 1020.96 1020.73 1020.46 1020.20 1019.86 1019.48 1019.08 1018.65 1018.23 1017.82 1017.47 1017.13 1016.76 1016.41 1016.20 1015.85 1013.90 1013.35 1013.29 1013.47 1013.75 1013.92 1014.06 1014.16 1014.61 1015.11 1014.99 1015.18 1015.22 1015.06 1014.03 1013.01 1012.60 1012.53 1012.56 1012.72 1012.72 1013.15 1013.30 1013.19 1013.32 1014.33 1015.29 1015.81
1021.11 1020.93 1020.71 1020.46 1020.21 1019.81 1019.40 1018.92 1018.45 1018.07 1017.70 1017.37 1017.01 1016.60 1016.37 1016.17 1015.35 1013.43 1013.45 1013.60 1013.64 1013.84 1014.04 1013.97 1014.18 1014.51 1014.77 1014.73 1014.23 1014.58 1013.90 1013.60 1013.02 1012.64 1012.57 1012.81 1012.82 1012.73 1012.69 1011.95 1012.07 1012.37 1013.05 1014.33 1015.08
1020.87 1020.73 1020.51 1020.30 1020.00 1019.71 1019.32 1018.82 1018.24 1017.73 1017.45 1017.28 1017.04 1016.68 1016.34 1016.09 1014.38 1013.28 1013.43 1013.68 1013.86 1014.03 1014.12 1014.16 1014.33 1014.40 1014.44 1014.12 1014.01 1013.94 1013.55 1013.18 1012.86 1012.79 1012.77 1012.87 1012.95 1013.20 1011.96 1011.67 1011.87 1012.09 1012.86 1013.73 1014.24
1020.82 1020.59 1020.30 1020.05 1019.74 1019.35 1018.92 1018.49 1017.99 1017.43 1017.02 1016.82 1016.80 1016.84 1016.38 1015.40 1012.91 1013.01 1013.38 1013.79 1013.74 1013.88 1013.85 1013.93 1013.94 1013.97 1014.29 1014.02 1013.96 1013.47 1013.41 1013.17 1012.86 1012.88 1012.89 1013.10 1012.96 1013.24 1010.89 1011.05 1011.35 1011.84 1012.13 1012.69 1013.20
1020.72 1020.47 1020.15 1019.84 1019.44 1018.97 1018.41 1017.85 1017.37 1016.91 1016.66 1016.44 1016.36 1016.55 1015.81 1013.34 1012.50 1013.00 1013.38 1013.51 1013.36 1013.45 1013.60 1013.47 1013.45 1013.81 1014.00 1013.87 1013.51 1013.54 1013.72 1013.24 1012.36 1012.30 1012.85 1013.08 1012.86 1012.16 1009.92 1010.76 1010.99 1011.22 1011.47 1011.77 1011.85
1020.67 1020.39 1019.98 1019.62 1019.19 1018.72 1018.00 1017.20 1016.65 1016.39 1016.09 1015.87 1016.00 1016.21 1014.83 1012.89 1012.63 1012.80 1013.12 1013.23 1013.23 1013.27 1013.47 1013.45 1013.39 1013.80 1014.04 1013.84 1013.82 1014.04 1014.16 1013.70 1011.57 1011.94 1012.53 1012.83 1011.44 1010.09 1009.73 1010.51 1010.58 1010.56 1010.87 1011.00 1010.87
1020.49 1020.26 1019.88 1019.31 1018.89 1018.31 1017.58 1016.49 1015.87 1015.67 1015.59 1015.54 1015.89 1015.80 1014.31 1012.96 1013.06 1012.59 1012.42 1012.78 1013.14 1013.43 1013.47 1013.54 1013.75 1014.16 1014.25 1014.54 1014.96 1014.43 1013.98 1013.39 1012.30 1011.49 1012.13 1012.63 1011.34 1009.78 1009.30 1010.12 1009.94 1010.03 1009.91 1009.96 1009.76
1020.32 1020.11 1019.83 1019.18 1018.61 1017.90 1017.04 1015.60 1015.01 1015.29 1015.36 1015.38 1015.25 1015.71 1013.67 1012.96 1012.78 1012.84 1012.92 1012.96 1013.15 1013.46 1014.02 1014.23 1014.39 1014.51 1014.70 1014.82 1014.62 1013.68 1013.85 1012.96 1012.36 1011.68 1011.89 1012.10 1011.08 1009.53 1009.48 1009.73 1009.59 1009.38 1009.01 1008.92 1008.68
1020.10 1019.87 1019.59 1019.05 1018.44 1017.74 1017.01 1015.68 1015.58 1015.86 1015.47 1014.84 1014.25 1013.51 1012.86 1012.76 1012.56 1012.83 1012.85 1013.27 1013.52 1013.91 1014.03 1014.09 1014.64 1014.22 1012.96 1013.32 1013.11 1013.31 1012.99 1012.40 1011.54 1011.27 1011.52 1011.20 1010.46 1009.68 1008.86 1009.15 1008.95 1008.48 1007.97 1007.74 1007.29
1019.78 1019.74 1019.49 1019.04 1018.59 1017.72 1017.34 1017.51 1018.38 1018.65 1016.89 1014.46 1013.78 1013.21 1012.20 1012.14 1012.63 1012.67 1012.68 1013.39 1013.75 1013.91 1014.05 1014.19 1013.64 1012.81 1012.81 1013.11 1013.23 1013.17 1012.93 1012.40 1011.40 1010.82 1011.11 1010.55 1009.68 1009.26 1008.70 1007.65 1007.58 1007.27 1006.64 1006.25 1005.84
1019.32 1019.51 1019.42 1018.90 1018.46 1017.99 1017.87 1018.15 1018.17 1018.29 1017.94 1014.69 1012.39 1011.85 1011.55 1011.85 1012.27 1012.17 1012.76 1013.00 1013.39 1013.88 1013.48 1012.82 1012.23 1012.12 1012.58 1012.89 1013.28 1012.05 1012.29 1011.87 1011.71 1011.41 1010.81 1010.56 1008.97 1008.68 1007.53 1006.58 1006.22 1005.64 1005.19 1004.90 1004.49
1018.95 1019.18 1019.13 1018.94 1018.78 1018.58 1018.21 1018.06 1017.79 1018.24 1017.46 1013.94 1012.31 1011.73 1011.74 1011.78 1012.46 1012.29 1012.03 1012.58 1013.15 1012.64 1013.21 1012.72 1011.74 1011.72 1012.30 1012.65 1012.54 1011.04 1011.51 1011.43 1011.42 1012.03 1011.32 1010.98 1007.14 1007.45 1006.72 1006.04 1005.45 1004.39 1003.91 1003.56 1003.10
1018.52 1018.76 1018.96 1019.05 1019.34 1018.99 1018.36 1018.18 1017.96 1018.07 1016.63 1012.97 1012.17 1012.06 1011.99 1012.40 1012.84 1012.98 1012.98 1012.78 1012.74 1012.83 1013.08 1010.98 1011.07 1011.36 1011.54 1010.92 1011.70 1010.41 1011.40 1011.82 1012.22 1012.19 1011.61 1011.12 1010.92 1006.02 1005.74 1005.56 1004.55 1003.47 1002.87 1002.10 1002.32
1018.10 1018.08 1018.57 1019.05 1019.27 1018.57 1018.12 1018.28 1018.22 1017.90 1015.38 1012.76 1012.30 1012.35 1012.61 1012.76 1012.97 1013.16 1013.39 1013.39 1013.27 1013.11 1012.48 1011.44 1011.34 1011.33 1010.95 1011.10 1011.06 1011.08 1011.70 1012.38 1012.68 1012.94 1011.72 1010.89 1010.44 1001.84 1005.03 1004.11 1003.34 1002.76 1002.07 1001.64 1001.50
1017.76 1018.05 1017.96 1017.88 1018.36 1018.10 1018.30 1019.18 1018.74 1016.68 1013.66 1012.73 1012.40 1012.69 1012.94 1013.04 1013.13 1013.20 1013.51 1013.85 1013.75 1013.76 1012.54 1011.29 1010.34 1009.93 1010.47 1011.52 1011.71 1011.56 1012.13 1013.21 1013.54 1013.85 1010.72 1008.85 1008.63 1003.17 1003.30 1002.65 1002.04 1001.63 1001.15 1000.64 1001.11
1017.51 1017.60 1017.48 1017.47 1017.82 1018.25 1018.31 1020.25 1018.37 1015.20 1013.79 1011.91 1012.13 1012.51 1012.48 1012.48 1012.61 1013.07 1013.43 1013.70 1013.19 1013.35 1013.01 1012.09 1010.25 1009.82 1009.50 1009.96 1010.21 1010.67 1010.81 1011.87 1012.08 1012.02 1010.13 1008.63 1006.32 1002.90 1001.27 1000.69 1000.69 1000.45 1000.20 1000.28 1001.04
1016.87 1017.25 1017.51 1017.16 1017.53 1017.87 1018.86 1019.24 1016.04 1014.60 1013.62 1012.97 1012.69 1012.49 1012.21 1011.77 1012.01 1012.63 1012.75 1012.25 1012.06 1012.07 1012.33 1011.48 1010.29 1009.58 1009.43 1009.51 1009.89 1010.09 1010.48 1009.45 1010.61 1010.27 1009.94 1006.02 1003.80 1001.97 1000.97 1000.65 1000.42 1000.00 999.95 1000.89 1001.18
1017.21 1017.09 1016.39 1016.16 1017.00 1017.65 1018.00 1015.56 1014.30 1013.65 1013.10 1013.12 1012.71 1012.28 1012.05 1012.05 1012.55 1012.47 1011.76 1010.65 1010.73 1010.37 1009.89 1009.67 1009.88 1009.43 1009.81 1010.00 1009.86 1009.71 1009.99 1010.53 1010.75 1009.96 1008.32 1005.27 1003.53 1001.38 1000.54 1000.35 999.45 999.83 1000.19 1000.70 1001.15
1017.20 1016.72 1015.25 1015.54 1016.52 1017.61 1016.56 1014.92 1013.86 1013.22 1013.33 1013.27 1012.28 1012.01 1011.39 1011.50 1011.61 1011.68 1010.99 1009.90 1009.92 1009.58 1009.53 1009.98 1010.12 1010.27 1010.58 1009.58 1009.42 1009.94 1009.68 1009.63 1009.52 1008.50 1006.83 1005.08 1001.82 1000.03 999.42 999.19 999.38 998.99 998.96 1000.10 1000.89
1017.14 1016.78 1015.06 1015.72 1016.37 1015.14 1014.54 1013.95 1013.37 1012.62 1012.71 1012.63 1012.09 1011.61 1011.28 1010.99 1010.64 1010.43 1009.96 1009.56 1008.73 1008.89 1009.55 1010.31 1010.53 1011.04 1010.29 1009.03 1008.63 1008.65 1007.76 1007.92 1008.24 1006.80 1006.22 1004.69 1002.12 999.61 999.00 998.47 998.99 999.16 999.03 999.75 999.98
1016.65 1015.78 1015.19 1014.81 1014.36 1014.05 1013.66 1013.44 1013.03 1012.27 1012.25 1011.84 1011.47 1011.16 1011.29 1010.80 1009.93 1009.33 1008.76 1008.13 1008.87 1009.10 1009.28 1009.81 1010.60 1010.98 1010.46 1009.41 1008.59 1008.22 1007.49 1006.86 1006.75 1006.66 1005.68 1004.61 1001.77 999.54 999.37 999.12 998.65 999.13 999.28 999.36 999.58
1017.29 1015.74 1015.00 1014.21 1013.66 1013.53 1013.36 1012.85 1012.26 1012.07 1011.74 1011.31 1011.16 1011.16 1010.65 1010.02 1009.48 1008.89 1008.10 1008.10 1008.41 1008.88 1009.41 1010.01 1009.84 1009.63 1008.35 1007.00 1006.67 1007.03 1007.08 1006.10 1006.61 1006.50 1004.70 1003.65 1001.14 999.18 998.55 998.29 998.26 998.64 998.82 998.89 999.11
1017.44 1015.60 1014.90 1014.30 1013.74 1013.36 1013.37 1012.91 1012.27 1012.27 1012.14 1011.85 1010.78 1010.82 1010.46 1009.56 1009.21 1008.61 1008.52 1008.13 1008.47 1008.42 1009.00 1009.39 1008.99 1008.81 1007.62 1007.18 1006.60 1006.48 1005.78 1005.37 1005.45 1005.54 1005.40 1002.01 1002.59 999.81 996.39 997.72 997.26 997.66 997.44 997.83 998.27
1017.41 1016.74 1016.08 1015.57 1014.78 1014.38 1013.78 1013.34 1013.15 1012.82 1012.79 1011.99 1011.75 1011.56 1011.22 1010.95 1010.30 1009.00 1008.76 1008.53 1007.56 1007.28 1008.15 1008.60 1007.50 1007.59 1006.32 1005.76 1005.65 1005.04 1004.09 1003.84 1003.85 1003.16 1002.41 1001.71 1000.79 999.37 997.88 997.14 996.92 995.63 996.30 997.57 997.50
1018.04 1017.62 1017.61 1016.27 1015.43 1015.32 1014.59 1014.18 1014.03 1014.17 1013.46 1012.89 1013.15 1012.79 1011.94 1011.64 1011.43 1010.89 1010.88 1010.43 1009.58 1008.52 1007.81 1007.27 1006.68 1006.18 1004.44 1005.06 1004.61 1004.02 1002.90 1001.58 1001.15 1000.78 1000.82 1000.88 999.07 997.88 997.48 996.95 994.91 994.68 996.47 996.42 996.29
Thickness
5704 5706 5709 5712 5714 5716 5719 5723 5726 5729 5731 5735 5738 5741 5743 5745 5747 5747 5746 5762 5763 5761 5757 5753 5748 5745 5742 5733 5738 5734 5698 5692 5712 5728 5734 5739 5735 5739 5738 5733 5733 5732 5732 5730 5722
5700 5702 5705 5707 5710 5712 5715 5718 5721 5725 5728 5731 5735 5738 5741 5743 5746 5745 5765 5765 5763 5759 5753 5745 5738 5737 5726 5728 5726 5711 5690 5708 5731 5737 5735 5735 5733 5730 5729 5727 5725 5728 5725 5720 5717
5695 5697 5699 5702 5704 5707 5711 5714 5717 5721 5725 5728 5732 5734 5737 5740 5739 5750 5760 5761 5759 5756 5753 5749 5745 5736 5723 5728 5721 5717 5702 5723 5736 5736 5734 5734 5730 5733 5723 5716 5725 5726 5722 5715 5712
5690 5692 5694 5697 5700 5703 5706 5711 5715 5718 5721 5724 5727 5731 5733 5735 5715 5753 5754 5752 5751 5749 5745 5741 5734 5724 5717 5716 5726 5714 5722 5725 5730 5734 5731 5725 5728 5730 5724 5735 5742 5736 5733 5721 5714
5686 5688 5690 5693 5695 5697 5701 5705 5711 5715 5718 5719 5721 5723 5727 5724 5730 5750 5748 5746 5743 5740 5734 5729 5721 5717 5712 5716 5720 5714 5721 5725 5727 5727 5724 5723 5716 5715 5728 5732 5735 5736 5729 5721 5718
5678 5682 5685 5687 5691 5694 5698 5702 5706 5711 5714 5715 5714 5713 5718 5709 5748 5746 5742 5737 5736 5732 5729 5724 5719 5717 5710 5712 5708 5719 5718 5716 5721 5719 5716 5710 5710 5712 5736 5732 5731 5728 5726 5721 5719
5672 5675 5679 5682 5686 5691 5696 5701 5706 5709 5711 5711 5710 5708 5712 5722 5745 5738 5734 5730 5732 5729 5722 5724 5722 5710 5708 5706 5713 5709 5698 5702 5718 5714 5702 5704 5701 5706 5737 5732 5727 5723 5723 5720 5721
5663 5667 5672 5675 5680 5684 5691 5698 5704 5706 5708 5708 5705 5701 5703 5734 5735 5732 5727 5724 5725 5724 5719 5720 5717 5705 5700 5704 5698 5691 5685 5678 5721 5707 5700 5696 5697 5726 5729 5715 5721 5721 5719 5718 5721
5656 5659 5664 5669 5673 5679 5686 5695 5701 5703 5701 5701 5696 5693 5696 5724 5719 5725 5725 5717 5714 5712 5711 5711 5703 5689 5693 5674 5662 5671 5657 5666 5690 5707 5689 5681 5687 5723 5728 5709 5715 5713 5716 5718 5719
5648 5652 5655 5661 5667 5674 5681 5693 5697 5695 5695 5693 5691 5679 5698 5704 5712 5714 5714 5710 5703 5699 5693 5689 5677 5667 5670 5661 5648 5658 5650 5667 5675 5700 5685 5666 5679 5713 5712 5710 5708 5712 5713 5714 5720
5641 5644 5647 5652 5659 5665 5673 5683 5681 5680 5682 5685 5685 5688 5695 5700 5704 5702 5703 5697 5693 5685 5673 5673 5654 5656 5688 5675 5677 5669 5664 5661 5681 5697 5672 5668 5674 5692 5713 5698 5702 5712 5715 5713 5717
5633 5635 5638 5641 5647 5654 5659 5660 5647 5644 5649 5677 5680 5681 5694 5693 5683 5689 5695 5679 5672 5664 5669 5661 5648 5679 5680 5670 5663 5657 5656 5658 5673 5688 5667 5664 5665 5676 5697 5712 5705 5710 5717 5721 5724
5627 5626 5628 5632 5636 5640 5643 5641 5640 5637 5625 5657 5684 5683 5685 5684 5675 5683 5681 5673 5664 5655 5663 5663 5666 5673 5667 5659 5651 5663 5651 5658 5652 5662 5661 5651 5646 5659 5687 5704 5712 5717 5721 5725 5728
5619 5618 5619 5620 5624 5624 5628 5629 5632 5628 5615 5645 5664 5677 5677 5676 5667 5674 5675 5667 5654 5656 5651 5644 5671 5668 5648 5641 5654 5651 5663 5655 5649 5640 5630 5640 5643 5656 5679 5689 5699 5715 5719 5724 5729
5610 5609 5608 5607 5604 5606 5615 5616 5619 5617 5590 5650 5650 5659 5663 5660 5653 5653 5655 5655 5646 5650 5646 5660 5663 5648 5646 5659 5645 5657 5649 5642 5638 5625 5623 5622 5601 5656 5668 5672 5690 5708 5714 5729 5727
5602 5601 5598 5594 5593 5597 5601 5601 5605 5598 5580 5635 5637 5635 5634 5635 5635 5635 5634 5637 5636 5631 5634 5642 5649 5646 5645 5642 5643 5642 5635 5625 5616 5603 5599 5610 5618 5680 5644 5668 5681 5697 5708 5718 5720
5590 5589 5590 5588 5588 5587 5586 5579 5579 5572 5621 5626 5625 5620 5620 5617 5615 5614 5611 5606 5604 5603 5609 5632 5639 5646 5641 5628 5624 5626 5614 5584 5570 5556 5598 5628 5609 5664 5664 5671 5680 5689 5703 5710 5705
5577 5577 5578 5577 5575 5571 5570 5549 5558 5591 5603 5631 5620 5610 5607 5611 5607 5599 5595 5591 5597 5597 5590 5595 5617 5628 5634 5633 5623 5612 5621 5587 5567 5577 5619 5609 5600 5643 5674 5685 5679 5684 5694 5691 5688
5568 5565 5564 5564 5562 5558 5546 5537 5577 5578 5591 5595 5594 5591 5596 5602 5599 5588 5582 5593 5599 5595 5585 5583 5591 5615 5615 5621 5621 5607 5592 5622 5586 5539 5549 5637 5635 5655 5665 5664 5668 5674 5679 5674 5673
5549 5551 5561 5555 5547 5539 5529 5567 5572 5582 5584 5577 5573 5581 5581 5588 5576 5575 5573 5599 5596 5595 5600 5596 5579 5603 5597 5598 5601 5594 5595 5579 5569 5557 5548 5614 5614 5641 5656 5663 5674 5661 5663 5664 5663
5527 5533 5554 5547 5529 5514 5518 5542 5564 5573 5568 5560 5566 5563 5571 5571 5571 5572 5567 5587 5594 5595 5586 5576 5570 5577 5573 5579 5586 5565 5569 5570 5570 5566 5580 5581 5618 5651 5649 5652 5651 5657 5661 5656 5651
5505 5508 5536 5521 5514 5517 5528 5539 5550 5561 5553 5543 5543 5550 5555 5561 5556 5560 5562 5570 5597 5589 5567 5558 5541 5533 5562 5577 5579 5575 5579 5580 5562 5580 5540 5559 5589 5657 5651 5651 5649 5647 5647 5646 5644
5490 5499 5507 5505 5513 5516 5512 5517 5523 5542 5541 5532 5529 5535 5542 5537 5534 5544 5560 5582 5577 5567 5549 5546 5510 5512 5518 5551 5558 5555 5560 5568 5563 5549 5554 5545 5581 5646 5639 5628 5630 5627 5627 5628 5631
5466 5478 5488 5490 5504 5504 5506 5508 5509 5518 5519 5526 5518 5519 5521 5524 5533 5527 5539 5553 5557 5551 5545 5527 5501 5516 5536 5557 5568 5552 5552 5555 5545 5534 5552 5552 5579 5616 5627 5628 5631 5627 5619 5616 5612
5441 5459 5466 5462 5484 5484 5485 5482 5490 5486 5497 5504 5507 5506 5510 5511 5515 5516 5526 5535 5531 5536 5523 5512 5494 5499 5516 5530 5538 5539 5547 5553 5544 5535 5509 5560 5546 5591 5632 5617 5616 5614 5616 5608 5604
5419 5428 5433 5442 5446 5451 5455 5464 5462 5472 5470 5478 5481 5485 5478 5476 5488 5507 5509 5512 5515 5516 5510 5490 5495 5494 5499 5508 5514 5521 5540 5544 5539 5545 5542 5546 5549 5585 5598 5606 5603 5618 5610 5590 5593
5390 5394 5394 5418 5419 5421 5436 5434 5433 5424 5441 5443 5434 5434 5445 5457 5450 5451 5448 5451 5460 5480 5495 5494 5481 5491 5499 5502 5501 5485 5519 5538 5544 5553 5547 5526 5557 5579 5575 5585 5609 5609 5588 5588 5592